Location: Colle San Luigi
(43.5500°N, 13.4167°E)
Time: 13:57:31
(UTC+00:00)

Cosmos 1703 - Visible Passes

Search period start: 06 August 2020 00:00
Search period end: 16 August 2020 00:00
Orbit: 525 x 539 km, 82.5° (Epoch: 05 August)

Date Brightness Start Highest point End Pass type
(mag) Time Alt. Az. Time Alt. Az. Time Alt. Az.
06 Aug 4.5 02:41:30 10° N 02:45:19 43° ENE 02:49:06 10° SSE visible
07 Aug 4.6 02:31:37 10° N 02:35:24 41° ENE 02:39:09 10° SSE visible
08 Aug 4.7 02:21:44 10° N 02:25:30 39° ENE 02:29:12 10° SSE visible
09 Aug 4.8 02:11:52 10° N 02:15:35 37° ENE 02:19:15 10° SE visible
10 Aug 4.9 02:01:59 10° N 02:05:40 35° ENE 02:09:18 10° SE visible
11 Aug 4.9 01:52:08 10° N 01:55:45 33° ENE 01:59:20 10° SE visible
11 Aug 4.8 03:28:49 10° NW 03:31:32 18° W 03:34:14 10° SW visible
12 Aug 5.0 01:42:15 10° NNE 01:45:49 31° ENE 01:49:19 10° SE visible
12 Aug 4.8 03:18:49 10° NW 03:21:39 19° W 03:24:27 10° SW visible
13 Aug 5.1 01:32:23 10° NNE 01:35:54 30° ENE 01:38:35 15° SE visible
13 Aug 4.7 03:08:50 10° NW 03:11:45 20° W 03:13:53 14° SW visible
14 Aug 5.1 01:22:31 10° NNE 01:25:59 28° ENE 01:27:57 19° ESE visible
14 Aug 4.7 02:58:51 10° NW 03:01:52 21° W 03:03:15 17° WSW visible
15 Aug 5.2 01:12:39 10° NNE 01:16:04 27° ENE 01:17:23 22° ESE visible
15 Aug 4.6 02:48:52 10° NW 02:51:58 22° W 02:52:41 21° WSW visible
